Location: Springfield
(37.2150°N, 93.2980°W)
Time: 19:05:32
(UTC-05:00)

OTV 5 (USA 277) - Visible Passes

Search period start: 22 July 2018 00:00
Search period end: 01 August 2018 00:00
Orbit: 312 x 321 km, 54.5° (Epoch: 05 July)

Date Brightness Start Highest point End Pass type
(mag) Time Alt. Az. Time Alt. Az. Time Alt. Az.
28 Jul ? 04:52:07 20° SSE 04:53:09 26° SE 04:55:29 10° ENE visible
29 Jul ? 05:06:16 28° SW 05:07:30 85° NW 05:10:13 10° NE visible
30 Jul ? 03:49:27 10° E 03:49:27 10° E 03:49:33 10° E visible
30 Jul ? 05:20:20 15° W 05:22:01 26° NW 05:24:22 10° NNE visible
31 Jul ? 04:03:28 24° ENE 04:03:28 24° ENE 04:04:47 10° NE visible
31 Jul ? 05:35:33 10° WNW 05:36:41 12° NNW 05:37:49 10° N visible
